CW0925 Cudjoe Key FL US current weather conditions

sailwx.info

Wind from 117 at 10 knots gusting 14

Air temperature 31.1° C
Dewpoint 26.4° C

Last reported at 2020-May-29 14:03 UTC.
Time now 2020-May-29 15:09 UTC

Location: N 24°36' W 081°30'.
View on Google Maps.

See reports from other nearby stations

  
Tides and Currents Weather Stations Pressure Air Temp Water Temp Dewpoint Dewpoint Depression Visibility Wind Speed Wind Dir Waves Ship Positions
date/time (UTC)wind fromknots sea level pressurealtimeterstation pressurevisibilityair tempwater tempwave heightnotes
2020-May-29 14:03 117 10 gusting 14 31.1
2020-May-29 13:53 099 6 gusting 15 31.1
2020-May-29 13:43 103 8 gusting 13 30.6
2020-May-29 13:33 133 6 gusting 13 30.6
2020-May-29 13:23 122 8 gusting 13 30.6
2020-May-29 13:13 131 9 gusting 13 30.6
2020-May-29 13:03 070 8 gusting 13 30.0
2020-May-29 12:53 086 9 gusting 14 30.0
2020-May-29 12:43 093 8 gusting 13 30.0
2020-May-29 12:33 104 6 gusting 13 29.4
2020-May-29 12:23 072 7 gusting 13 29.4
2020-May-29 12:13 088 6 gusting 13 28.9
2020-May-29 12:03 108 7 gusting 12 28.3
2020-May-29 11:53 107 6 gusting 13 28.3
2020-May-29 11:43 110 6 gusting 12 27.8
2020-May-29 11:33 129 8 gusting 13 27.8
2020-May-29 11:23 142 8 gusting 13 27.8
2020-May-29 11:13 122 7 gusting 12 27.8
2020-May-29 11:03 088 6 gusting 10 27.8
2020-May-29 10:53 093 6 gusting 12 27.2
2020-May-29 10:43 090 6 gusting 13 27.2
2020-May-29 10:33 111 6 gusting 11 27.2
2020-May-29 10:23 133 4 gusting 12 27.2
2020-May-29 10:13 124 6 gusting 10 27.2
2020-May-29 10:03 108 4 gusting 9 27.2
2020-May-29 09:53 096 4 gusting 9 27.2
2020-May-29 09:43 077 3 gusting 6 26.7
2020-May-29 09:33 080 2 gusting 3 26.1
2020-May-29 09:23 079 3 gusting 4 26.1
2020-May-29 09:13 105 1 gusting 6 26.1
2020-May-29 09:03 111 3 gusting 7 26.1
2020-May-29 08:53 168 5 gusting 16 26.7
2020-May-29 08:43 142 9 gusting 14 27.2
2020-May-29 08:33 097 4 gusting 7 27.2
2020-May-29 08:23 086 2 gusting 6 27.2
2020-May-29 08:13 082 3 gusting 7 27.2
2020-May-29 08:03 076 6 gusting 8 27.2
2020-May-29 07:53 099 5 gusting 10 27.8
2020-May-29 07:43 053 5 gusting 10 27.8
2020-May-29 07:33 048 4 gusting 7 27.8
2020-May-29 07:23 063 4 gusting 8 27.8
2020-May-29 07:13 046 4 gusting 9 27.8
2020-May-29 07:03 053 4 gusting 8 27.8
2020-May-29 06:53 051 3 gusting 7 27.8
2020-May-29 06:43 045 3 gusting 9 27.8
2020-May-29 06:33 041 3 gusting 9 27.8
2020-May-29 06:23 049 3 gusting 7 27.8
2020-May-29 06:13 042 5 gusting 7 27.8
2020-May-29 06:03 061 4 gusting 7 27.8
2020-May-29 05:53 091 3 gusting 8 27.8
2020-May-29 05:43 076 6 gusting 8 27.8
2020-May-29 05:33 051 5 gusting 8 28.3
2020-May-29 05:23 083 5 gusting 10 28.3
2020-May-29 05:13 093 6 gusting 11 28.3
2020-May-29 05:03 091 6 gusting 11 28.3
2020-May-29 04:53 076 5 gusting 10 28.3
2020-May-29 04:43 070 6 gusting 12 28.3
2020-May-29 04:33 088 6 gusting 12 28.3
2020-May-29 04:23 048 9 gusting 13 28.3
2020-May-29 04:13 063 7 gusting 13 28.3
2020-May-29 04:03 083 9 gusting 13 28.3
2020-May-29 03:53 082 6 gusting 12 28.3
2020-May-29 03:43 097 6 gusting 14 28.3
2020-May-29 03:33 116 10 gusting 15 28.3
2020-May-29 03:23 074 9 gusting 14 28.3
2020-May-29 03:13 109 9 gusting 13 28.3
2020-May-29 03:03 095 7 gusting 14 28.3
2020-May-29 02:53 076 7 gusting 15 28.3
2020-May-29 02:43 049 7 gusting 15 28.3
2020-May-29 02:33 064 6 gusting 12 28.3
2020-May-29 02:23 113 6 gusting 12 28.3
2020-May-29 02:13 080 7 gusting 14 28.3
2020-May-29 02:03 076 6 gusting 13 28.3
2020-May-29 01:53 082 5 gusting 13 28.3
2020-May-29 01:43 109 7 gusting 13 28.3
2020-May-29 01:23 151 5 gusting 13 28.3
2020-May-29 01:13 101 6 gusting 13 28.3
2020-May-29 01:03 087 7 gusting 13 28.3
2020-May-29 00:53 079 6 gusting 13 28.3
2020-May-29 00:43 084 9 gusting 15 28.3
2020-May-29 00:33 078 7 gusting 13 28.9
2020-May-29 00:23 050 8 gusting 14 28.9
2020-May-29 00:13 101 6 gusting 15 28.9
2020-May-29 00:03 142 7 gusting 13 28.9
2020-May-28 23:53 129 9 gusting 16 28.9
2020-May-28 23:43 095 9 gusting 16 28.9
2020-May-28 23:33 086 7 gusting 13 29.4
2020-May-28 23:23 092 6 gusting 14 29.4
2020-May-28 23:13 101 10 gusting 15 29.4
2020-May-28 23:03 105 8 gusting 16 29.4
2020-May-28 22:53 110 9 gusting 14 29.4
2020-May-28 22:43 076 8 gusting 13 30.0
2020-May-28 22:33 157 8 gusting 13 30.0
2020-May-28 22:23 115 10 gusting 14 30.0
2020-May-28 22:13 101 8 gusting 13 30.6
2020-May-28 22:03 118 8 gusting 13 31.1
2020-May-28 21:53 137 8 gusting 13 31.1
2020-May-28 21:43 156 7 gusting 13 31.1
2020-May-28 21:33 110 9 gusting 16 31.1
2020-May-28 21:23 076 7 gusting 13 31.7
2020-May-28 21:13 105 8 gusting 15 31.7
2020-May-28 21:03 074 6 gusting 12 32.2
2020-May-28 20:53 123 6 gusting 14 32.2
2020-May-28 20:43 097 9 gusting 14 32.2
2020-May-28 20:33 091 6 gusting 13 32.2
2020-May-28 20:23 080 6 gusting 13 32.2
2020-May-28 20:13 120 7 gusting 12 32.2
2020-May-28 20:03 091 7 gusting 13 32.8
2020-May-28 19:53 128 7 gusting 14 32.8
2020-May-28 19:43 137 7 gusting 13 32.8
2020-May-28 19:33 122 6 gusting 13 32.8
2020-May-28 19:23 107 6 gusting 11 32.8
2020-May-28 19:13 117 6 gusting 11 32.8
2020-May-28 19:03 147 6 gusting 13 32.8
2020-May-28 18:53 153 8 gusting 13 32.8
2020-May-28 18:43 112 6 gusting 12 32.8
2020-May-28 18:33 101 6 gusting 11 32.8
2020-May-28 18:23 155 5 gusting 11 32.8
2020-May-28 18:13 107 6 gusting 12 32.8
2020-May-28 18:03 128 6 gusting 11 32.8
2020-May-28 17:53 083 6 gusting 10 32.8
2020-May-28 17:43 118 6 gusting 12 32.8
2020-May-28 17:33 094 7 gusting 11 32.8
2020-May-28 17:23 124 6 gusting 11 32.8
2020-May-28 17:13 133 4 gusting 10 32.8
2020-May-28 17:03 100 8 gusting 11 32.8
2020-May-28 16:53 127 6 gusting 11 32.8
2020-May-28 16:43 147 5 gusting 9 32.8
2020-May-28 16:33 115 6 gusting 13 32.2
2020-May-28 16:23 114 5 gusting 12 32.2
2020-May-28 16:13 156 5 gusting 11 32.2
2020-May-28 16:03 111 7 gusting 11 32.2
2020-May-28 15:53 131 6 gusting 11 32.2
2020-May-28 15:43 120 6 gusting 12 32.8
2020-May-28 15:33 142 6 gusting 11 32.2
2020-May-28 15:23 118 6 gusting 11 32.2
2020-May-28 15:13 098 5 gusting 11 32.2
2020-May-28 15:03 128 6 gusting 10 32.2
2020-May-28 14:53 102 7 gusting 12 31.7
2020-May-28 14:43 098 6 gusting 11 31.7
2020-May-28 14:33 128 6 gusting 10 31.7
2020-May-28 14:23 128 7 gusting 11 32.2
2020-May-28 14:13 096 5 gusting 11 31.7
2020-May-28 14:03 121 5 gusting 10 31.7
2020-May-28 13:53 147 6 gusting 10 31.7
2020-May-28 13:43 109 5 gusting 9 31.1
2020-May-28 13:33 115 5 gusting 8 31.1
2020-May-28 13:23 082 5 gusting 8 30.6
2020-May-28 13:13 096 4 gusting 9 30.0
2020-May-28 13:03 112 4 gusting 8 30.0
2020-May-28 12:53 108 4 gusting 11 30.0
2020-May-28 12:43 103 6 gusting 10 29.4
2020-May-28 12:33 093 5 gusting 10 29.4
2020-May-28 12:23 101 5 gusting 10 28.9
2020-May-28 12:13 159 4 gusting 8 28.9
2020-May-28 12:03 122 5 gusting 9 28.3
2020-May-28 11:53 108 5 gusting 9 28.3
2020-May-28 11:43 142 5 gusting 10 28.3
2020-May-28 11:33 101 6 gusting 10 27.8
2020-May-28 11:23 161 6 gusting 10 27.8
2020-May-28 11:13 120 7 gusting 10 27.8
2020-May-28 11:03 120 6 gusting 9 27.8
2020-May-28 10:53 109 5 gusting 9 27.8
2020-May-28 10:43 130 6 gusting 9 27.8
2020-May-28 10:33 114 5 gusting 10 27.8
2020-May-28 10:23 151 5 gusting 10 27.8
2020-May-28 10:13 142 6 gusting 11 27.8
2020-May-28 10:03 133 6 gusting 11 27.8
2020-May-28 09:53 153 6 gusting 11 27.8
2020-May-28 09:43 157 6 gusting 9 27.8
2020-May-28 09:33 147 6 gusting 10 27.8
2020-May-28 09:23 155 7 gusting 11 27.8
2020-May-28 09:13 147 6 gusting 11 27.8
2020-May-28 09:03 147 5 gusting 11 27.8
2020-May-28 08:53 127 6 gusting 9 27.8
2020-May-28 08:43 133 5 gusting 11 27.8
2020-May-28 08:33 133 6 gusting 11 27.8
2020-May-28 08:23 161 7 gusting 10 27.8
2020-May-28 08:13 142 7 gusting 12 27.8
2020-May-28 08:03 142 7 gusting 11 27.8
2020-May-28 07:53 147 6 gusting 11 27.8
2020-May-28 07:43 133 6 gusting 12 27.8
2020-May-28 07:33 142 6 gusting 11 27.8
2020-May-28 07:23 102 5 gusting 11 27.8
2020-May-28 07:13 122 5 gusting 11 27.8
2020-May-28 07:03 125 6 gusting 9 27.8
2020-May-28 06:53 126 4 gusting 8 27.8
2020-May-28 06:43 121 3 gusting 9 27.8
2020-May-28 06:33 147 6 gusting 9 27.8
2020-May-28 06:23 128 5 gusting 10 27.8
2020-May-28 06:13 147 5 gusting 9 27.8
2020-May-28 06:03 142 6 gusting 8 27.8
2020-May-28 05:53 096 5 gusting 9 27.8
2020-May-28 05:43 103 6 gusting 11 27.8
2020-May-28 05:33 133 5 gusting 9 27.8
2020-May-28 05:23 085 5 gusting 9 28.3
2020-May-28 05:13 127 6 gusting 11 28.3
2020-May-28 05:03 125 5 gusting 10 28.3
2020-May-28 04:53 111 6 gusting 10 28.3
2020-May-28 04:43 124 6 gusting 10 27.8
2020-May-28 04:33 118 5 gusting 8 28.3
2020-May-28 04:23 091 4 gusting 7 28.3
2020-May-28 04:03 103 4 gusting 8 28.3
2020-May-28 03:53 109 3 gusting 8 28.3
2020-May-28 03:43 109 2 gusting 8 28.3
2020-May-28 03:33 091 4 gusting 9 28.3
2020-May-28 03:23 099 6 gusting 10 28.3
2020-May-28 03:13 078 3 gusting 9 28.3
2020-May-28 03:03 077 6 gusting 13 28.3
2020-May-28 02:53 094 7 gusting 11 28.3
2020-May-28 02:43 090 4 gusting 9 28.3
2020-May-28 02:33 086 5 gusting 8 28.3
2020-May-28 02:23 085 5 gusting 10 28.3
2020-May-28 02:13 103 5 gusting 8 28.3
2020-May-28 02:03 063 5 gusting 7 28.3
2020-May-28 01:53 096 3 gusting 7 28.3
2020-May-28 01:43 104 5 gusting 7 28.3
2020-May-28 01:33 113 4 gusting 7 28.3
2020-May-28 01:23 122 2 gusting 6 28.3
2020-May-28 01:13 094 3 gusting 6 28.3
2020-May-28 01:03 113 3 gusting 6 28.3
2020-May-28 00:53 106 2 gusting 5 28.3
2020-May-28 00:43 093 2 gusting 6 28.3
2020-May-28 00:33 118 2 gusting 5 28.3
2020-May-28 00:23 092 3 gusting 6 28.3
2020-May-28 00:13 107 1 gusting 4 28.9
2020-May-28 00:03 110 1 gusting 4 28.9
2020-May-27 23:53 106 2 gusting 3 28.9
2020-May-27 23:43 106 1 gusting 4 28.9
2020-May-27 23:33 180 1 gusting 3 29.4
2020-May-27 23:23 188 0 gusting 3 29.4
2020-May-27 23:13 188 1 gusting 2 29.4
2020-May-27 23:03 188 1 gusting 3 29.4
2020-May-27 22:53 188 1 gusting 4 29.4
2020-May-27 22:43 188 1 gusting 3 29.4
2020-May-27 22:33 188 3 gusting 4 29.4
2020-May-27 22:23 188 2 gusting 3 30.0
2020-May-27 22:13 187 3 gusting 4 30.0
2020-May-27 22:03 186 2 gusting 5 30.0
2020-May-27 21:53 201 3 gusting 6 30.6
2020-May-27 21:43 195 3 gusting 6 30.6
2020-May-27 21:33 179 3 gusting 4 30.6
2020-May-27 21:23 194 2 gusting 6 30.6
2020-May-27 21:13 193 3 gusting 5 30.6
2020-May-27 21:03 194 2 gusting 6 30.6
2020-May-27 20:53 201 3 gusting 4 30.6
2020-May-27 20:43 195 2 gusting 6 30.6
2020-May-27 20:33 184 4 gusting 7 30.6
2020-May-27 20:23 203 4 gusting 7 31.1
2020-May-27 20:13 198 6 gusting 8 31.1
2020-May-27 20:03 166 5 gusting 9 31.1
2020-May-27 19:53 177 6 gusting 9 31.1
2020-May-27 19:43 196 6 gusting 8 30.6
2020-May-27 19:33 205 6 gusting 9 30.6
2020-May-27 19:23 174 5 gusting 8 30.6
2020-May-27 19:13 205 5 gusting 8 30.6
2020-May-27 19:03 182 6 gusting 10 30.6
2020-May-27 18:53 191 5 gusting 9 30.6
2020-May-27 18:43 180 6 gusting 9 30.6
2020-May-27 18:33 201 6 gusting 10 30.6
2020-May-27 18:23 177 6 gusting 9 31.1
2020-May-27 18:13 181 6 gusting 9 30.6
2020-May-27 18:03 178 6 gusting 10 31.1
2020-May-27 17:53 168 6 gusting 10 31.1
2020-May-27 17:43 174 6 gusting 9 30.6
2020-May-27 17:33 186 7 gusting 10 -12.2
2020-May-27 17:23 176 6 gusting 10 -11.7
2020-May-27 17:13 174 6 gusting 10 30.6
2020-May-27 17:03 199 6 gusting 10 30.6
2020-May-27 16:53 184 6 gusting 9 30.6
2020-May-27 16:43 154 5 gusting 10 31.1
2020-May-27 16:33 174 6 gusting 10 30.6
2020-May-27 16:23 183 5 gusting 9 30.6
2020-May-27 16:13 184 5 gusting 10 30.0
2020-May-27 16:03 174 6 gusting 10 30.0
2020-May-27 15:53 182 6 gusting 9 30.0
2020-May-27 15:43 205 6 gusting 10 30.0
2020-May-27 15:33 192 6 gusting 10 30.0
2020-May-27 15:23 199 6 gusting 10 30.0
2020-May-27 15:13 190 5 gusting 10 29.4
2020-May-27 15:03 203 5 gusting 8 29.4